Regional Weather Roundup
Issued by NWS Northern Indiana

Home | Current Version | Previous Version | Graphics & Text | Print | Product List | Glossary On
Versions: 1 2 3 4 5 6 7 8 9 10 11 12 13 14 15 16 17 18 19 20 21 22 23 24 25 26 27 28 29 30 31 32 33 34 35 36 37 38 39 40 41 42 43 44 45 46 47 48 49 50
000
ASUS43 KIWX 262010
RWRIWX

KIWX WEATHER ROUNDUP
NATIONAL WEATHER SERVICE NORTHERN INDIANA
400 PM EDT SUN APR 26 2015

NOTE: "FAIR" INDICATES FEW OR NO CLOUDS BELOW 12,000 FEET WITH NO
SIGNIFICANT WEATHER AND/OR OBSTRUCTIONS TO VISIBILITY.

* THESE STATIONS ARE NOT UNDER NWS QUALITY CONTROL. THEY ALSO MAY NOT
  REPORT WEATHER SUCH AS PRECIPITATION OR FOG.

INZ001>027-262100-
NORTHERN INDIANA

CITY           SKY/WX    TMP DP  RH WIND       PRES   REMARKS
VALPARAISO     SUNNY     50  28  42 N16       29.99S
MICHIGAN CITY* SUNNY     45  30  57 N14       30.00F
LAPORTE*       SUNNY     52  32  47 N16       29.98S
KNOX*          SUNNY     54   7  15 N20       29.95S
SOUTH BEND     SUNNY     55  31  39 N18       29.96F
ELKHART*       PTSUNNY   55  25  30 N9G22     29.93F
GOSHEN         MOSUNNY   56  31  38 NE13G24   29.92F
MONTICELLO*    PTSUNNY   57  36  45 N10       29.93F
LOGANSPORT*    PTSUNNY   54  28  37 N13G20    29.93F
ROCHESTER*     SUNNY     59  32  36 N9        29.93S
WARSAW*        SUNNY     55  32  41 NE12G18   29.92S
ANGOLA*        PTSUNNY   54  30  40 NE9       29.90F
FORT WAYNE     MOSUNNY   58  36  43 N13       29.91S
HUNTINGTON*    MOSUNNY   56  32  39 N9G18     29.90F
PERU/GRISSOM   MOSUNNY   57  34  41 N12G17    29.91F
MARION*        MOSUNNY   55  32  41 N15       29.91F

$$
INZ028>050-262100-
CENTRAL INDIANA

CITY           SKY/WX    TMP DP  RH WIND       PRES   REMARKS
LAFAYETTE      PTSUNNY   55  34  45 N12       29.93F
KOKOMO*        SUNNY     57  36  44 NE15G22   29.92S
MUNCIE*        MOSUNNY   56  36  47 NE8       29.89F
INDIANAPOLIS   MOSUNNY   56  35  45 N14G21    29.90S

$$
MIZ043>046-050>051-056>058-064>065-071>073-077>080-262100-
SOUTHWEST LOWER MICHIGAN

CITY           SKY/WX    TMP DP  RH WIND       PRES   REMARKS
BATTLE CREEK   PTSUNNY   57  29  34 N9G22     29.93F
BENTON HARBOR  SUNNY     46  34  62 N8        29.98F
COLDWATER*     MOSUNNY   54  29  38 N12G17    29.91F
HILLSDALE*     MOSUNNY   56  28  34 N14G20    29.90S
HOLLAND        SUNNY     55  31  39 NW15G23   29.97F
GRAND RAPIDS   PTSUNNY   58  27  30 N6        29.93F
KALAMAZOO      PTSUNNY   57  28  33 NE7       29.94S
STURGIS*       PTSUNNY   55  30  38 CALM      29.92S
THREE RIVERS*  FAIR      56  28  34 N10G22    29.93S

$$
OHZ001>008-015>018-024>025-262100-
NORTHWEST OHIO

CITY           SKY/WX    TMP DP  RH WIND       PRES   REMARKS
WAUSEON*       FAIR      59  28  31 N13       29.89F
DEFIANCE       SUNNY     59  31  34 NW15      29.89F
FINDLAY        SUNNY     57  30  35 NE12G24   29.87F
TOLEDO EXPRESS MOSUNNY   58  28  32 N12G21    29.88F
TOLEDO METCALF SUNNY     57  28  33 E9G17     29.90F
LIMA           SUNNY     55  33  43 N17       29.87F

$$
AND FOR LAKE MICHIGAN COASTAL AND OPEN LAKE BUOY OBSERVATIONS

STATION/POSITION TEMP    WIND        PRES    VSBY  WAVE
                 AIR SEA DIR/SP/G                  HT/PER
                 (F)     (DEG/KT/KT) (MB)    (MI)  (FT/S)
CALUMET HARBOR    45     340/ 15/ 19   N/A
MICHIGAN CITY     40     330/ 15/ 17   N/A
BURNS HARBOR      40      10/ 10/ 13 1016.9S
SAINT JOSEPH      43     340/ 12/ 14 1015.6F
MICHIGAN CITY     39 45  350/ 14/ 17   N/A           3/ 4

$$
&&



USA.gov is the U.S. government's official web portal to all federal, state and local government web resources and services.